User: anonymous   Login
Location: Namasale
(1.5000°N, 32.6167°E)
Time: 17:31:59
(UTC+00:00)
Language:

Cosmos 2084 Rocket - Orbit

View from above orbital plane
View from above orbital plane
View from above satellite
View from above satellite

Ground track
Ground track

The orbit data is extracted from the following two-line orbital elements,

1 20666U 90055D   20185.45348146 -.00000076  00000-0  10850-4 0  9992
2 20666  62.7868  31.1566 0046743 345.1749  14.7971 14.92344828627153
Epoch (UTC): 03 July 2020 10:53:00
Eccentricity: 0.0046743
inclination: 62.7868°
perigee height: 558 km
apogee height: 623 km
right ascension of ascending node: 31.1566°
argument of perigee: 345.1749°
revolutions per day: 14.92344828
mean anomaly at epoch: 14.7971°
orbit number at epoch: 62715

The dashed part of the orbit path shows where the satellite is in the earth's shadow,  

DLR